Weather Roundup
Issued by NWS

Home | Current Version | Previous Version | Graphics & Text | Print | Product List | Glossary Off
Versions: 1 2 3 4 5 6 7 8 9 10 11 12 13 14 15 16 17 18 19 20 21 22 23 24 25 26 27 28 29 30 31 32 33 34 35 36 37 38 39 40 41 42 43 44 45 46 47 48 49 50

000
NZUS93 KARX 281710
HRRWXR

CURRENT HOURLY OBSERVATIONS ACROSS
MUCH OF THE UPPER MISSISSIPPI VALLEY
NATIONAL WEATHER SERVICE LA CROSSE WI
1100 AM CST SAT FEB 28 2015


...SOUTHEAST MINNESOTA...


CITY           SKY/WX    TMP DP  RH WIND       PRES   REMARKS
ROCHESTER      SUNNY      5  -2  72 S14       30.52S WCI -12
ROCHESTER/MAYO FAIR       9  -4  54 S9G20     30.53F WCI  -4
WINONA         SUNNY     14   1  57 S5        30.62S WCI   6
AUSTIN         SUNNY      3   0  85 S10       30.53R WCI -12
ALBERT LEA     SUNNY      9   1  72 S12       30.50S WCI  -6
DODGE CENTER   MOSUNNY    9   1  72 S15       30.50R WCI  -8
PRESTON        SUNNY      5  -3  69 S12       30.55R WCI -11
OWATONNA       SUNNY     10   0  61 S12       30.51R WCI  -4
FARIBAULT      SUNNY     10   1  67 S12       30.51S WCI  -4
$$

...ELSEWHERE IN MINNESOTA...


CITY           SKY/WX    TMP DP  RH WIND       PRES   REMARKS
MINNEAPOLIS    MOSUNNY   15   1  53 S10       30.51S WCI   2
INTNL FALLS    MOSUNNY   17   0  47 S8        30.25F WCI   7
DULUTH         MOSUNNY   13   1  59 S12       30.38S WCI  -1
RED WING       SUNNY     12   0  57 CALM      30.55F
REDWOOD FALLS  SUNNY     17   7  64 S17       30.43S WCI   1
MANKATO        SUNNY     12   0  57 S12       30.49S WCI  -2
FAIRMONT       SUNNY     10   3  72 S15       30.44F WCI  -6
$$

...SOUTHWEST WISCONSIN...


CITY           SKY/WX    TMP DP  RH WIND       PRES   REMARKS
LA CROSSE      SUNNY      8  -3  61 S7        30.63F WCI  -3
PRAIRIE DU CHI SUNNY      6  -7  57 CALM      30.65F
BOSCOBEL       SUNNY     10  -3  55 CALM      30.66F
LONE ROCK      SUNNY     10  -4  53 CALM      30.65F
PLATTEVILLE    SUNNY      6   0  76 SE7       30.63S WCI  -6
FORT MC COY    SUNNY     12  -2  53 S5        30.62R WCI   4
CAMP DOUGLAS   SUNNY     10  -2  56 S8        30.61F WCI  -1
VIROQUA        FAIR       9  -2  61 S6        30.57S WCI  -1
WIS DELLS      SUNNY     10  -3  53 S3        30.61F
$$

...ELSEWHERE IN WISCONSIN...


CITY           SKY/WX    TMP DP  RH WIND       PRES   REMARKS
MILWAUKEE      MOSUNNY   11  -4  51 SW10      30.69F WCI  -3
MADISON        MOSUNNY   10  -3  55 S12       30.65S WCI  -5
GREEN BAY      SUNNY     13   1  59 S7        30.64F WCI   3
EAU CLAIRE     SUNNY     11  -1  58 S12       30.55F WCI  -3
BLACK RVR FLS  FAIR      12  -4  50 SW7       30.60F WCI   1
MEDFORD        SUNNY      6  -1  73 S7        30.51S WCI  -6
WAUSAU         SUNNY      9   1  70 CALM      30.55S
WIS RAPIDS     SUNNY     10  -5  50 S6        30.60F WCI   0
MARSHFIELD     SUNNY     10  -3  55 S8        30.54F WCI  -2
RICE LAKE      FAIR      10   0  65 S10       30.52F WCI  -4
$$

...NORTHEAST IOWA...


CITY           SKY/WX    TMP DP  RH WIND       PRES   REMARKS
DECORAH        SUNNY      5  -4  66 S8        30.58S WCI  -8
MASON CITY     SUNNY      3  -3  76 S9        30.54F WCI -12
CHARLES CITY   SUNNY      5   1  85 S13       30.57F WCI -12
OELWEIN        SUNNY      3   0  85 SE9       30.59S WCI -11
$$

...ELSEWHERE IN IOWA...


CITY           SKY/WX    TMP DP  RH WIND       PRES   REMARKS
DES MOINES     MOSUNNY   17   4  56 S8        30.54F WCI   7
IOWA CITY      SUNNY      8   0  69 SE7       30.64F WCI  -3
FORT DODGE     SUNNY     14   3  62 S9G16     30.51F WCI   2
$$

...NORTHERN ILLINOIS...


CITY           SKY/WX    TMP DP  RH WIND       PRES   REMARKS
CHICAGO-OHARE  SUNNY     14   0  53 SE5       30.69F WCI   6
CHICAGO-MIDWAY MOSUNNY   17   0  47 S10       30.71F WCI   5
MOLINE         SUNNY     12   1  61 SE12      30.65F WCI  -2
ROCKFORD       SUNNY     10  -2  58 S7        30.70S WCI  -1
PEORIA         SUNNY     20   4  50 SE8       30.65F WCI  10
$$

NOTE: "FAIR" INDICATES FEW OR NO CLOUDS BELOW 12,000 FEET WITH NO
SIGNIFICANT WEATHER AND/OR OBSTRUCTIONS TO VISIBILITY. WIND
SPEEDS ARE IN MILES-PER-HOUR.



USA.gov is the U.S. government's official web portal to all federal, state and local government web resources and services.